PST,Max TemperatureF,Mean TemperatureF,Min TemperatureF,Max Dew PointF,MeanDew PointF,Min DewpointF,Max Humidity, Mean Humidity, Min Humidity, Max Sea Level PressureIn, Mean Sea Level PressureIn, Min Sea Level PressureIn, Max VisibilityMiles, Mean VisibilityMiles, Min VisibilityMiles, Max Wind SpeedMPH, Mean Wind SpeedMPH, Max Gust SpeedMPH,PrecipitationIn, CloudCover, Events, WindDirDegrees
2013-12-1,58,53,48,52,50,46,93,87,80,30.20,30.03,29.91,10,8,2,29,15,39,1.08,8,Rain,234
2013-12-2,53,45,37,49,37,32,85,74,62,30.06,29.98,29.90,10,10,2,16,5,23,0.09,7,Rain,270
2013-12-3,44,35,26,36,29,15,92,63,33,30.30,30.16,30.07,10,10,10,20,5,24,T,5,,78
2013-12-4,38,33,27,20,17,13,75,56,37,30.35,30.32,30.30,10,10,10,17,8,22,0.00,0,,85
2013-12-5,32,30,28,16,13,10,63,54,45,30.32,30.25,30.19,10,10,10,22,14,28,0.00,3,,88
2013-12-6,30,27,24,19,13,6,74,58,42,30.18,30.10,30.01,10,8,2,29,16,39,T,8,Snow,75
2013-12-7,30,25,20,7,3,-2,51,40,29,30.45,30.32,30.14,10,10,10,23,13,32,0.00,1,,79
2013-12-8,29,22,15,14,10,4,74,57,39,30.61,30.53,30.45,10,10,10,18,6,22,0.00,0,,104
2013-12-9,31,22,13,19,15,10,80,65,49,30.63,30.58,30.54,10,10,10,13,2,16,0.00,6,,185
2013-12-10,37,30,23,27,24,20,92,76,59,30.55,30.48,30.41,10,7,0,6,1,6,T,4,Fog-Snow,231
2013-12-11,42,34,26,31,27,24,92,73,54,30.40,30.31,30.21,10,6,0,28,12,37,0.00,1,Fog,40
2013-12-12,39,36,33,34,28,21,92,73,54,30.23,30.18,30.13,10,8,2,31,15,43,0.10,5,Rain,89
2013-12-13,46,41,36,44,40,34,100,95,89,30.44,30.38,30.23,10,4,0,9,2,13,0.07,8,Fog-Rain,90
2013-12-14,43,41,38,40,38,36,100,93,86,30.48,30.44,30.39,10,4,0,9,2,10,0.00,8,Fog,153
2013-12-15,47,43,38,43,40,36,96,91,85,30.49,30.46,30.43,10,7,1,5,1,6,0.01,8,Rain,144
2013-12-16,44,42,40,43,41,38,100,95,89,30.48,30.40,30.26,10,2,0,6,2,8,0.00,8,Fog,252
2013-12-17,41,38,34,39,35,32,96,91,85,30.26,30.23,30.19,10,6,1,9,2,11,0.00,8,,135
2013-12-18,43,37,30,39,36,29,100,90,79,30.18,30.13,30.06,10,7,1,8,2,13,0.06,7,Rain,222
2013-12-19,40,35,30,33,31,28,96,83,70,30.34,30.25,30.13,10,8,2,8,1,9,0.00,5,,190
2013-12-20,47,40,33,44,35,31,96,89,82,30.24,30.05,29.89,10,6,2,10,3,13,0.17,8,Rain-Snow,94
2013-12-21,51,48,45,47,45,43,100,92,83,30.24,30.11,29.93,10,6,2,9,1,11,0.14,8,Rain,296
2013-12-22,53,50,46,48,46,44,93,85,77,30.36,30.31,30.23,10,8,2,13,2,17,0.05,8,Rain,115
2013-12-23,52,43,33,49,43,32,100,92,83,30.55,30.38,30.29,10,6,0,20,4,25,0.60,6,Fog-Rain,185
2013-12-24,39,35,31,37,34,31,100,93,85,30.62,30.57,30.50,10,2,0,7,1,9,0.00,8,Fog,125
2013-12-25,41,37,33,35,33,31,100,93,85,30.50,30.45,30.40,10,6,0,7,2,10,0.00,6,Fog,246
2013-12-26,43,37,31,35,32,29,100,88,76,30.41,30.33,30.24,10,6,1,7,1,10,0.00,5,,229
2013-12-27,40,35,30,36,32,29,96,88,79,30.40,30.27,30.22,10,8,0,8,2,10,0.00,7,Fog,235
2013-12-28,47,42,37,38,36,34,92,82,71,30.51,30.47,30.41,10,9,7,10,2,13,0.00,7,,259
2013-12-29,40,38,35,36,34,32,92,89,85,30.47,30.40,30.31,10,9,6,13,2,16,0.00,7,,90
2013-12-30,44,38,32,37,35,31,92,84,76,30.29,30.23,30.19,10,8,2,9,2,12,T,5,Rain,124
2013-12-31,49,43,36,42,40,35,100,90,80,30.36,30.31,30.24,10,7,0,7,1,8,T,8,Fog-Rain,247